Погода в Сорочинске

Россия / Оренбургская область     52°25′44″N   53°09′03″E
темп.,
°C
ветер,
м/с
пор.,
м/с
влажн.,
%
обл.,
%
осадки,
мм/ч
давл.,
гПа
погр.,
м
6 марта, сб
сб623:00−7зсз349498 0.4 101137
02:00−11зсз11940 0.0 101221
05:00−12зюз119613 0.0 101421
08:00−12з119696 0.0 101421
11:00−8зюз129160 0.0 101587
14:00−5зюз349149 0.0 1015326
17:00−5з249475 0.0 1015262
20:00−9з2295100 0.0 101521
7 марта, вс
вс723:00−9с2395100 0.0 101452
02:00−11ссв2391100 0.0 101363
05:00−12ссв3692100 0.0 1012190
08:00−12ссв3891100 0.0 1011240
11:00−11с5787100 0.0 1012290
14:00−10ссз478570 0.0 1012327
17:00−9зсз468847 0.0 1013541
20:00−15зюз349232 0.0 101432
8 марта, пн
пн823:00−16ююз459416 0.0 101470
02:00−14ююз4119557 0.0 1012227
05:00−10ююз7159279 0.0 1009517
08:00−7ююз81692100 0.4 1006780
11:00−5юз101592100 0.9 1006916
14:00−3юз81292100 0.4 1006905
17:00−2ююз81395100 0.9 1006928
20:00−2ююз81593100 0.6 1004951
9 марта, вт
вт923:00−2ююз91694100 1.1 1003989
02:00−3зюз101490100 0.6 1004700
05:00−9зюз61486100 0.6 1006468
08:00−13зюз6139373 0.0 1009289
11:00−11зюз6109261 0.0 1011370
14:00−9зюз589055 0.0 1012451
17:00−9зюз589056 0.0 1013515
20:00−14юз349672 0.0 101334
10 марта, ср
ср1023:00−16зюз239863 0.0 101421
02:00−16зюз2298100 0.0 101320
05:00−16з1298100 0.1 101320
08:00−16зсз229799 0.1 101445
11:00−14зсз4693100 0.1 1014329
14:00−13зсз5690100 0.1 1016581
17:00−13з5791100 0.1 1016612
20:00−18з499799 0.1 1018167